[Iaude] MPEC A100: 2024 AH2 [a=1.44,e=0.32,i=4.0,H=24.0]
    mpec at marsden.cfa.harvard.edu 
    mpec at marsden.cfa.harvard.edu
       
    Tue Jan  9 16:48:03 EST 2024
    
    
  
M.P.E.C. 2024-A100                              Issued 2024 January 9, 21:46 UT
     The Minor Planet Electronic Circulars contain information on unusual
         minor planets, routine data on comets and natural satellites,
         and occasional editorial announcements.  They are published
    on behalf of Division F of the International Astronomical Union by the
          Minor Planet Center, Smithsonian Astrophysical Observatory,
                          Cambridge, MA 02138, U.S.A.
			  
             Prepared using the Tamkin Foundation Computer Network
                              MPC at CFA.HARVARD.EDU
            URL https://www.minorplanetcenter.net/    ISSN 1523-6714
                                    2024 AH2                                    
Observations:
     K24A02H* C2024 01 06.59520009 01 14.898+79 04 12.24         20.59wXEA100F52
     K24A02H  C2024 01 06.60886709 01 42.835+79 04 52.73         20.94wXEA100F52
     K24A02H  C2024 01 06.62245809 02 11.073+79 05 32.52         20.67wXEA100F52
     K24A02H KB2024 01 06.93283409 14 51.58 +79 20 51.9          20.6 GXEA100I93
     K24A02H KB2024 01 06.93689109 15 00.63 +79 21 05.5          20.0 GXEA100I93
     K24A02H KB2024 01 06.94076409 15 09.75 +79 21 18.6          20.3 GXEA100I93
     K24A02H  C2024 01 07.52362709 39 09.501+79 47 32.80         20.49GVEA100F52
     K24A02H  C2024 01 07.52444409 39 11.332+79 47 34.60         20.39GVEA100F52
     K24A02H KC2024 01 09.87960211 33 23.453+80 03 25.42         20.5 GVEA100J95
     K24A02H KC2024 01 09.88850011 33 50.434+80 03 16.09         20.5 GVEA100J95
Observer details:
F52 Pan-STARRS 2, Haleakala.  Observers J. Herman, T. Lowe, P. Minguez, A.
    Schultz, I. Smith.  Measurers K. Chambers, T. de Boer, J. Fairlamb, H.
    Gao, M. Huber, C.-C. Lin, E. Magnier, Y. Ramanjooloo, R. Wainscoat, R.
    Weryk.  1.8-m Ritchey-Chretien + CCD.
I93 St Pardon de Conques.  Observer F. Losse.  0.40-m f/3.7 reflector + CMO.
J95 Great Shefford.  Observer P. Birtwhistle.  0.41-m f/6.3 Schmidt-Cassegrain
    + CCD.
Orbital elements:
2024 AH2                                                 Earth MOID = 0.0400 AU
Epoch 2023 Sept. 13.0 TT = JDT 2460200.5                MPC                     
M 275.63201              (2000.0)            P               Q                  
n   0.56848673     Peri.  118.79949     -0.79206141     -0.60980308             
a   1.4431866      Node    23.65908     +0.53302798     -0.71317580             
e   0.3212043      Incl.    3.98802     +0.29752293     -0.34571734             
P   1.73           H   24.04          G   0.15           U   8                  
Residuals in seconds of arc
240106 F52  0.0   0.0     240106 I93  0.4-  0.3+    240109 J95  0.4-  0.2-
240106 F52  0.1-  0.2-    240106 I93  0.3+  0.5+    240109 J95  0.4+  0.2+
240106 F52  0.5+  0.2-    240107 F52  0.1+  0.1+
240106 I93  0.2+  0.1+    240107 F52  0.2-  0.0
Ephemeris:
2024 AH2                 a,e,i = 1.44, 0.32, 4                   q = 0.9796
Date    TT    R. A. (2000) Decl.     Delta      r    Elong.  Phase     V
2023 12 10    05 47 37.3 +46 56 49   0.1620  1.1332   154.4    22.1    21.4
...
2023 12 25    06 15 00.9 +62 15 56   0.1110  1.0722   141.1    35.1    20.9
...
2024 01 02    07 13 12.3 +73 15 18   0.09197 1.0444   129.6    46.5    20.7
...
2024 01 08    10 00 32.9 +80 01 15   0.08156 1.0261   119.6    56.4    20.7
2024 01 09    10 49 05.8 +80 14 52   0.08017 1.0233   117.9    58.1    20.7
2024 01 10    11 38 49.5 +80 00 54   0.07888 1.0206   116.1    59.9    20.7
...
2024 01 16    14 43 06.7 +71 15 52   0.07343 1.0060   105.6    70.3    20.8
...
2024 01 24    15 47 47.0 +53 05 29   0.07246 0.9912    93.4    82.5    21.2
...
2024 02 08    16 21 21.0 +22 33 30   0.08729 0.9795    83.0    91.9    22.0
A. U. Tomatic                (C) Copyright 2024 MPC           M.P.E.C. 2024-A100
    
    
More information about the Iaude
mailing list